Time,TemperatureF,DewpointF,PressureIn,WindDirection,WindDirectionDegrees,WindSpeedMPH,WindSpeedGustMPH,Humidity,HourlyPrecipIn,Conditions,Clouds,dailyrainin,SoftwareType,DateUTC
2013-03-09 00:00:00,43.8,33.9,30.18,SE,142,9.0,11.0,68,0.00,,SKC,0.00,VWS V12.07,2013-03-09 06:00:00,
2013-03-09 00:06:00,43.7,33.8,30.17,SSE,158,6.0,12.0,68,0.00,,SKC,0.00,VWS V12.07,2013-03-09 06:06:00,
2013-03-09 00:15:00,43.6,33.8,30.17,SE,125,6.0,14.0,68,0.00,,SKC,0.00,VWS V12.07,2013-03-09 06:15:00,
2013-03-09 00:23:00,43.5,34.4,30.17,South,176,8.0,14.0,70,0.00,,SKC,0.00,VWS V12.07,2013-03-09 06:23:00,
2013-03-09 00:30:00,43.1,34.3,30.16,ESE,118,5.0,14.0,71,0.00,,SKC,0.00,VWS V12.07,2013-03-09 06:30:00,
2013-03-09 00:36:00,43.0,34.2,30.16,ESE,111,8.0,13.0,71,0.00,,SKC,0.00,VWS V12.07,2013-03-09 06:36:00,
2013-03-09 00:45:00,43.1,34.0,30.16,SSE,160,10.0,13.0,70,0.00,,SKC,0.00,VWS V12.07,2013-03-09 06:45:00,
2013-03-09 00:54:00,43.1,34.0,30.16,ESE,104,10.0,13.0,70,0.00,,SKC,0.00,VWS V12.07,2013-03-09 06:54:00,
2013-03-09 01:01:00,42.9,34.2,30.16,SE,133,4.0,6.0,71,0.00,,SKC,0.00,VWS V12.07,2013-03-09 07:01:00,
2013-03-09 01:08:00,42.4,35.0,30.16,SE,134,6.0,9.0,75,0.00,,SKC,0.00,VWS V12.07,2013-03-09 07:08:00,
2013-03-09 01:13:00,42.1,34.8,30.16,SE,134,4.0,9.0,75,0.00,,SKC,0.00,VWS V12.07,2013-03-09 07:13:00,
2013-03-09 01:20:00,42.0,34.7,30.16,SE,129,3.0,9.0,75,0.00,,SKC,0.00,VWS V12.07,2013-03-09 07:20:00,
2013-03-09 01:28:00,42.1,34.4,30.17,SSE,155,2.0,9.0,74,0.00,,SKC,0.00,VWS V12.07,2013-03-09 07:28:00,
2013-03-09 01:37:00,42.0,34.7,30.17,SSE,148,0.0,5.0,75,0.00,,SKC,0.00,VWS V12.07,2013-03-09 07:37:00,
2013-03-09 01:45:00,41.7,34.7,30.17,SSE,155,0.0,5.0,76,0.00,,SKC,0.00,VWS V12.07,2013-03-09 07:45:00,
2013-03-09 01:54:00,41.7,34.4,30.17,SE,140,1.0,5.0,75,0.00,,SKC,0.00,VWS V12.07,2013-03-09 07:54:00,
2013-03-09 02:00:00,41.8,34.5,30.17,SSE,160,0.0,0.0,75,0.00,,SKC,0.00,VWS V12.07,2013-03-09 08:00:00,
2013-03-09 02:08:00,41.7,34.7,30.17,NNW,330,0.0,0.0,76,0.00,,SKC,0.00,VWS V12.07,2013-03-09 08:08:00,
2013-03-09 02:16:00,41.7,34.7,30.17,NE,42,2.0,3.0,76,0.00,,SKC,0.00,VWS V12.07,2013-03-09 08:16:00,
2013-03-09 02:24:00,41.6,34.9,30.17,NE,39,0.0,3.0,77,0.01,,SKC,0.01,VWS V12.07,2013-03-09 08:24:00,
2013-03-09 02:29:00,41.5,35.2,30.16,East,87,2.0,4.0,78,0.01,,SKC,0.01,VWS V12.07,2013-03-09 08:29:00,
2013-03-09 02:36:00,41.0,35.3,30.15,SE,141,1.0,6.0,80,0.01,,SKC,0.01,VWS V12.07,2013-03-09 08:36:00,
2013-03-09 02:45:00,40.6,35.2,30.16,SSE,160,1.0,7.0,81,0.03,,SKC,0.03,VWS V12.07,2013-03-09 08:45:00,
2013-03-09 02:54:00,40.0,35.9,30.15,ESE,117,2.0,7.0,85,0.04,,SKC,0.04,VWS V12.07,2013-03-09 08:54:00,
2013-03-09 03:01:00,40.1,36.0,30.14,ENE,63,3.0,3.0,85,0.05,,SKC,0.05,VWS V12.07,2013-03-09 09:01:00,
2013-03-09 03:06:00,40.0,35.9,30.14,East,94,5.0,6.0,85,0.05,,SKC,0.05,VWS V12.07,2013-03-09 09:06:00,
2013-03-09 03:11:00,39.9,35.8,30.13,East,90,2.0,6.0,85,0.05,,SKC,0.05,VWS V12.07,2013-03-09 09:11:00,
2013-03-09 03:18:00,39.9,35.8,30.14,ESE,117,3.0,7.0,85,0.05,,SKC,0.05,VWS V12.07,2013-03-09 09:18:00,
2013-03-09 03:23:00,39.8,36.0,30.14,ESE,117,0.0,7.0,86,0.05,,SKC,0.05,VWS V12.07,2013-03-09 09:23:00,
2013-03-09 03:30:00,39.7,35.9,30.14,ESE,113,0.0,7.0,86,0.05,,SKC,0.05,VWS V12.07,2013-03-09 09:30:00,
2013-03-09 03:36:00,39.6,36.1,30.15,SE,143,0.0,2.0,87,0.04,,SKC,0.05,VWS V12.07,2013-03-09 09:36:00,
2013-03-09 03:41:00,39.6,36.1,30.15,ESE,122,3.0,3.0,87,0.04,,SKC,0.05,VWS V12.07,2013-03-09 09:41:00,
2013-03-09 03:49:00,39.7,36.2,30.15,ESE,107,0.0,3.0,87,0.04,,SKC,0.05,VWS V12.07,2013-03-09 09:49:00,
2013-03-09 03:56:00,39.3,36.0,30.15,ESE,110,0.0,3.0,88,0.06,,SKC,0.07,VWS V12.07,2013-03-09 09:56:00,
2013-03-09 04:04:00,39.4,36.2,30.15,SE,124,0.0,0.0,88,0.02,,SKC,0.07,VWS V12.07,2013-03-09 10:04:00,
2013-03-09 04:10:00,39.4,36.4,30.15,ESE,115,0.0,2.0,89,0.03,,SKC,0.08,VWS V12.07,2013-03-09 10:10:00,
2013-03-09 04:16:00,39.2,36.2,30.15,SE,135,3.0,4.0,89,0.05,,SKC,0.10,VWS V12.07,2013-03-09 10:16:00,
2013-03-09 04:21:00,39.2,36.2,30.15,SE,134,3.0,5.0,89,0.07,,SKC,0.12,VWS V12.07,2013-03-09 10:21:00,
2013-03-09 04:26:00,39.1,36.1,30.14,ESE,111,4.0,7.0,89,0.09,,SKC,0.14,VWS V12.07,2013-03-09 10:26:00,
2013-03-09 04:31:00,39.1,36.1,30.14,SE,127,5.0,7.0,89,0.10,,SKC,0.15,VWS V12.07,2013-03-09 10:31:00,
2013-03-09 04:36:00,39.0,36.0,30.14,ESE,120,5.0,8.0,89,0.11,,SKC,0.16,VWS V12.07,2013-03-09 10:36:00,
2013-03-09 04:44:00,38.8,36.1,30.13,ESE,105,6.0,9.0,90,0.13,,SKC,0.18,VWS V12.07,2013-03-09 10:44:00,
2013-03-09 04:53:00,38.8,36.4,30.14,ESE,115,4.0,9.0,91,0.15,,SKC,0.20,VWS V12.07,2013-03-09 10:53:00,
2013-03-09 05:00:00,38.8,36.4,30.14,SE,138,3.0,4.0,91,0.16,,SKC,0.21,VWS V12.07,2013-03-09 11:00:00,
2013-03-09 05:09:00,38.8,36.4,30.14,SSE,148,3.0,6.0,91,0.16,,SKC,0.23,VWS V12.07,2013-03-09 11:09:00,
2013-03-09 05:16:00,38.8,36.4,30.13,SE,134,4.0,8.0,91,0.16,,SKC,0.23,VWS V12.07,2013-03-09 11:16:00,
2013-03-09 05:24:00,38.7,36.3,30.12,ESE,117,5.0,10.0,91,0.18,,SKC,0.25,VWS V12.07,2013-03-09 11:24:00,
2013-03-09 05:30:00,38.7,36.3,30.12,SE,132,5.0,5.0,91,0.19,,SKC,0.26,VWS V12.07,2013-03-09 11:30:00,
2013-03-09 05:36:00,38.6,36.5,30.12,SSE,154,6.0,8.0,92,0.13,,SKC,0.28,VWS V12.07,2013-03-09 11:36:00,
2013-03-09 05:45:00,38.6,36.5,30.13,ESE,117,9.0,11.0,92,0.17,,SKC,0.32,VWS V12.07,2013-03-09 11:45:00,
2013-03-09 05:53:00,38.6,36.8,30.12,SE,137,4.0,13.0,93,0.21,,SKC,0.36,VWS V12.07,2013-03-09 11:53:00,
2013-03-09 06:00:00,38.7,36.6,30.12,SE,137,9.0,12.0,92,0.23,,SKC,0.38,VWS V12.07,2013-03-09 12:00:00,
2013-03-09 06:06:00,38.7,36.6,30.11,SE,144,9.0,13.0,92,0.19,,SKC,0.40,VWS V12.07,2013-03-09 12:06:00,
2013-03-09 06:14:00,38.6,36.5,30.10,ESE,108,7.0,13.0,92,0.21,,SKC,0.42,VWS V12.07,2013-03-09 12:14:00,
2013-03-09 06:23:00,38.6,36.5,30.10,SSE,156,4.0,15.0,92,0.23,,SKC,0.44,VWS V12.07,2013-03-09 12:23:00,
2013-03-09 06:30:00,38.5,36.7,30.11,SE,139,6.0,8.0,93,0.24,,SKC,0.45,VWS V12.07,2013-03-09 12:30:00,
2013-03-09 06:36:00,38.6,36.8,30.11,SE,143,7.0,15.0,93,0.20,,SKC,0.47,VWS V12.07,2013-03-09 12:36:00,
2013-03-09 06:41:00,38.5,36.7,30.11,ESE,122,3.0,15.0,93,0.22,,SKC,0.48,VWS V12.07,2013-03-09 12:41:00,
2013-03-09 06:47:00,38.5,36.7,30.11,South,175,6.0,15.0,93,0.26,,SKC,0.52,VWS V12.07,2013-03-09 12:47:00,
2013-03-09 06:54:00,38.4,36.8,30.10,ESE,112,5.0,15.0,94,0.30,,SKC,0.56,VWS V12.07,2013-03-09 12:54:00,
2013-03-09 07:04:00,38.3,36.7,30.11,SSE,158,3.0,7.0,94,0.23,,SKC,0.61,VWS V12.07,2013-03-09 13:04:00,
2013-03-09 07:10:00,38.3,36.7,30.11,SSE,148,8.0,10.0,94,0.25,,SKC,0.63,VWS V12.07,2013-03-09 13:10:00,
2013-03-09 07:18:00,38.4,37.1,30.10,SSE,159,2.0,11.0,95,0.33,,SKC,0.71,VWS V12.07,2013-03-09 13:18:00,
2013-03-09 07:26:00,38.4,37.1,30.10,SSE,153,6.0,16.0,95,0.40,,SKC,0.78,VWS V12.07,2013-03-09 13:26:00,
2013-03-09 07:34:00,38.3,37.0,30.09,SE,138,9.0,13.0,95,0.35,,SKC,0.80,VWS V12.07,2013-03-09 13:34:00,
2013-03-09 07:39:00,38.3,37.0,30.09,SE,134,6.0,13.0,95,0.39,,SKC,0.84,VWS V12.07,2013-03-09 13:39:00,
2013-03-09 07:46:00,38.3,37.0,30.09,SE,129,3.0,13.0,95,0.42,,SKC,0.87,VWS V12.07,2013-03-09 13:46:00,
2013-03-09 07:54:00,38.1,36.8,30.08,East,96,7.0,13.0,95,0.42,,SKC,0.87,VWS V12.07,2013-03-09 13:54:00,
2013-03-09 08:03:00,38.2,36.9,30.08,SE,134,3.0,10.0,95,0.29,,SKC,0.89,VWS V12.07,2013-03-09 14:03:00,
2013-03-09 08:10:00,38.3,37.3,30.08,ESE,111,6.0,11.0,96,0.30,,SKC,0.89,VWS V12.07,2013-03-09 14:10:00,
2013-03-09 08:18:00,38.3,37.3,30.07,SE,130,6.0,11.0,96,0.31,,SKC,0.90,VWS V12.07,2013-03-09 14:18:00,
2013-03-09 08:27:00,38.4,37.4,30.07,SSE,150,5.0,12.0,96,0.32,,SKC,0.91,VWS V12.07,2013-03-09 14:27:00,
2013-03-09 08:34:00,38.4,37.4,30.06,SSE,148,6.0,14.0,96,0.12,,SKC,0.91,VWS V12.07,2013-03-09 14:34:00,
2013-03-09 08:43:00,38.5,37.5,30.06,SSW,195,10.0,17.0,96,0.12,,SKC,0.91,VWS V12.07,2013-03-09 14:43:00,
2013-03-09 08:50:00,38.6,37.6,30.06,SE,139,6.0,17.0,96,0.12,,SKC,0.91,VWS V12.07,2013-03-09 14:50:00,
2013-03-09 08:58:00,38.7,37.7,30.05,SE,135,7.0,17.0,96,0.13,,SKC,0.92,VWS V12.07,2013-03-09 14:58:00,
2013-03-09 09:04:00,38.9,37.9,30.05,SE,124,8.0,12.0,96,0.04,,SKC,0.92,VWS V12.07,2013-03-09 15:04:00,
2013-03-09 09:10:00,39.1,38.1,30.05,East,80,8.0,13.0,96,0.04,,SKC,0.92,VWS V12.07,2013-03-09 15:10:00,
2013-03-09 09:18:00,39.3,38.0,30.05,SSE,150,6.0,13.0,95,0.04,,SKC,0.92,VWS V12.07,2013-03-09 15:18:00,
2013-03-09 09:23:00,39.4,38.1,30.05,SSE,157,6.0,13.0,95,0.04,,SKC,0.92,VWS V12.07,2013-03-09 15:23:00,
2013-03-09 09:31:00,39.6,38.3,30.04,ESE,117,3.0,5.0,95,0.04,,SKC,0.92,VWS V12.07,2013-03-09 15:31:00,
2013-03-09 09:38:00,39.8,38.5,30.03,South,172,4.0,11.0,95,0.01,,SKC,0.92,VWS V12.07,2013-03-09 15:38:00,
2013-03-09 09:46:00,39.9,38.6,30.03,SE,142,7.0,11.0,95,0.01,,SKC,0.92,VWS V12.07,2013-03-09 15:46:00,
2013-03-09 09:54:00,40.2,38.9,30.02,SSE,150,2.0,12.0,95,0.01,,SKC,0.92,VWS V12.07,2013-03-09 15:54:00,
2013-03-09 10:00:00,40.3,39.0,30.02,SE,134,4.0,4.0,95,0.01,,SKC,0.92,VWS V12.07,2013-03-09 16:00:00,
2013-03-09 10:06:00,40.4,39.1,30.02,SSE,162,11.0,12.0,95,0.00,,SKC,0.92,VWS V12.07,2013-03-09 16:06:00,
2013-03-09 10:14:00,40.5,39.2,30.02,SSE,153,5.0,13.0,95,0.00,,SKC,0.92,VWS V12.07,2013-03-09 16:14:00,
2013-03-09 10:24:00,40.7,39.1,30.02,SE,140,4.0,13.0,94,0.00,,SKC,0.92,VWS V12.07,2013-03-09 16:24:00,
2013-03-09 10:31:00,40.8,39.2,30.01,ESE,108,6.0,6.0,94,0.00,,SKC,0.92,VWS V12.07,2013-03-09 16:31:00,
2013-03-09 10:38:00,41.0,39.4,30.00,SE,142,8.0,12.0,94,0.00,,SKC,0.92,VWS V12.07,2013-03-09 16:38:00,
2013-03-09 10:44:00,41.1,39.5,30.00,SE,141,10.0,12.0,94,0.00,,SKC,0.92,VWS V12.07,2013-03-09 16:44:00,
2013-03-09 10:50:00,41.3,39.4,30.00,SSE,155,8.0,12.0,93,0.00,,SKC,0.92,VWS V12.07,2013-03-09 16:50:00,
2013-03-09 10:56:00,41.4,39.5,30.00,SSE,163,7.0,12.0,93,0.00,,SKC,0.92,VWS V12.07,2013-03-09 16:56:00,
2013-03-09 11:05:00,41.4,39.5,30.00,SE,125,6.0,12.0,93,0.00,,SKC,0.92,VWS V12.07,2013-03-09 17:05:00,
2013-03-09 11:13:00,41.5,39.3,29.99,ESE,117,11.0,14.0,92,0.00,,SKC,0.92,VWS V12.07,2013-03-09 17:13:00,
2013-03-09 11:20:00,41.7,39.5,29.99,SE,133,5.0,14.0,92,0.00,,SKC,0.92,VWS V12.07,2013-03-09 17:20:00,
2013-03-09 11:26:00,41.7,39.5,29.99,ESE,122,9.0,14.0,92,0.00,,SKC,0.92,VWS V12.07,2013-03-09 17:26:00,
2013-03-09 11:34:00,41.8,39.7,29.97,SE,142,4.0,17.0,92,0.00,,SKC,0.92,VWS V12.07,2013-03-09 17:34:00,
2013-03-09 11:40:00,41.8,39.7,29.97,SSE,158,7.0,17.0,92,0.00,,SKC,0.92,VWS V12.07,2013-03-09 17:40:00,
2013-03-09 11:48:00,41.9,39.8,29.97,SE,135,9.0,17.0,92,0.00,,SKC,0.92,VWS V12.07,2013-03-09 17:48:00,
2013-03-09 11:53:00,41.9,39.8,29.96,SE,141,7.0,17.0,92,0.00,,SKC,0.92,VWS V12.07,2013-03-09 17:53:00,
2013-03-09 12:00:00,42.1,40.0,29.96,SSE,150,7.0,7.0,92,0.00,,SKC,0.92,VWS V12.07,2013-03-09 18:00:00,
2013-03-09 12:06:00,42.2,39.8,29.96,SE,143,5.0,9.0,91,0.00,,SKC,0.92,VWS V12.07,2013-03-09 18:06:00,
2013-03-09 12:14:00,42.7,40.0,29.95,SE,129,6.0,9.0,90,0.00,,SKC,0.92,VWS V12.07,2013-03-09 18:14:00,
2013-03-09 12:23:00,43.3,40.0,29.94,SSE,150,9.0,11.0,88,0.00,,SKC,0.92,VWS V12.07,2013-03-09 18:23:00,
2013-03-09 12:30:00,44.1,40.5,29.94,SSE,159,3.0,4.0,87,0.00,,SKC,0.92,VWS V12.07,2013-03-09 18:30:00,
2013-03-09 12:38:00,45.0,41.1,29.93,SE,129,5.0,11.0,86,0.00,,SKC,0.92,VWS V12.07,2013-03-09 18:38:00,
2013-03-09 12:46:00,46.0,41.4,29.92,SSE,163,8.0,11.0,84,0.00,,SKC,0.92,VWS V12.07,2013-03-09 18:46:00,
2013-03-09 12:54:00,47.5,42.3,29.92,ESE,118,7.0,11.0,82,0.00,,SKC,0.92,VWS V12.07,2013-03-09 18:54:00,
2013-03-09 13:00:00,48.3,42.8,29.91,South,176,4.0,6.0,81,0.00,,SKC,0.92,VWS V12.07,2013-03-09 19:00:00,
2013-03-09 13:06:00,48.9,42.7,29.90,SSW,194,6.0,10.0,79,0.00,,SKC,0.92,VWS V12.07,2013-03-09 19:06:00,
2013-03-09 13:11:00,49.7,43.1,29.90,SE,141,5.0,10.0,78,0.00,,SKC,0.92,VWS V12.07,2013-03-09 19:11:00,
2013-03-09 13:18:00,50.2,42.6,29.89,East,91,5.0,11.0,75,0.00,,SKC,0.92,VWS V12.07,2013-03-09 19:18:00,
2013-03-09 13:26:00,51.0,43.0,29.88,ENE,74,4.0,11.0,74,0.00,,SKC,0.92,VWS V12.07,2013-03-09 19:26:00,
2013-03-09 13:34:00,52.1,43.0,29.88,SE,135,9.0,13.0,71,0.00,,SKC,0.92,VWS V12.07,2013-03-09 19:34:00,
2013-03-09 13:40:00,52.5,43.0,29.88,SSW,193,5.0,13.0,70,0.00,,SKC,0.92,VWS V12.07,2013-03-09 19:40:00,
2013-03-09 13:48:00,53.2,43.3,29.87,South,172,4.0,13.0,69,0.00,,SKC,0.92,VWS V12.07,2013-03-09 19:48:00,
2013-03-09 13:56:00,53.6,43.7,29.86,SSE,148,9.0,13.0,69,0.00,,SKC,0.92,VWS V12.07,2013-03-09 19:56:00,
2013-03-09 14:04:00,53.9,43.2,29.86,SE,139,8.0,12.0,67,0.00,,SKC,0.92,VWS V12.07,2013-03-09 20:04:00,
2013-03-09 14:10:00,53.7,43.0,29.85,SE,141,10.0,14.0,67,0.00,,SKC,0.92,VWS V12.07,2013-03-09 20:10:00,
2013-03-09 14:16:00,53.8,43.5,29.85,South,169,4.0,15.0,68,0.00,,SKC,0.92,VWS V12.07,2013-03-09 20:16:00,
2013-03-09 14:25:00,54.3,43.6,29.85,SE,136,10.0,15.0,67,0.00,,SKC,0.92,VWS V12.07,2013-03-09 20:25:00,
2013-03-09 14:33:00,54.9,43.8,29.84,SE,129,7.0,12.0,66,0.00,,SKC,0.92,VWS V12.07,2013-03-09 20:33:00,
2013-03-09 14:40:00,55.0,43.5,29.84,ESE,122,9.0,12.0,65,0.00,,SKC,0.92,VWS V12.07,2013-03-09 20:40:00,
2013-03-09 14:46:00,54.8,43.3,29.84,South,169,8.0,14.0,65,0.00,,SKC,0.92,VWS V12.07,2013-03-09 20:46:00,
2013-03-09 14:51:00,55.1,44.0,29.84,SE,146,8.0,14.0,66,0.00,,SKC,0.92,VWS V12.07,2013-03-09 20:51:00,
2013-03-09 14:59:00,55.3,43.8,29.84,SSE,148,7.0,14.0,65,0.00,,SKC,0.92,VWS V12.07,2013-03-09 20:59:00,
2013-03-09 15:04:00,55.1,43.6,29.83,ESE,108,6.0,9.0,65,0.00,,SKC,0.92,VWS V12.07,2013-03-09 21:04:00,
2013-03-09 15:10:00,54.8,43.7,29.83,ESE,110,7.0,10.0,66,0.00,,SKC,0.92,VWS V12.07,2013-03-09 21:10:00,
2013-03-09 15:16:00,54.6,43.5,29.83,SE,128,5.0,12.0,66,0.00,,SKC,0.92,VWS V12.07,2013-03-09 21:16:00,
2013-03-09 15:25:00,54.8,43.7,29.82,SSE,148,7.0,12.0,66,0.00,,SKC,0.92,VWS V12.07,2013-03-09 21:25:00,
2013-03-09 15:33:00,54.9,43.8,29.82,South,169,8.0,11.0,66,0.00,,SKC,0.92,VWS V12.07,2013-03-09 21:33:00,
2013-03-09 15:40:00,55.1,43.6,29.81,ESE,112,7.0,12.0,65,0.00,,SKC,0.92,VWS V12.07,2013-03-09 21:40:00,
2013-03-09 15:48:00,55.1,43.6,29.81,SSE,150,7.0,15.0,65,0.00,,SKC,0.92,VWS V12.07,2013-03-09 21:48:00,
2013-03-09 15:56:00,55.1,43.2,29.80,SE,128,9.0,15.0,64,0.00,,SKC,0.92,VWS V12.07,2013-03-09 21:56:00,
2013-03-09 16:04:00,55.5,43.5,29.80,SE,129,8.0,11.0,64,0.00,,SKC,0.92,VWS V12.07,2013-03-09 22:04:00,
2013-03-09 16:09:00,55.7,43.3,29.80,SE,132,5.0,13.0,63,0.00,,SKC,0.92,VWS V12.07,2013-03-09 22:09:00,
2013-03-09 16:16:00,55.8,43.4,29.80,SSE,160,7.0,13.0,63,0.00,,SKC,0.92,VWS V12.07,2013-03-09 22:16:00,
2013-03-09 16:24:00,56.0,43.2,29.80,SE,141,8.0,15.0,62,0.00,,SKC,0.92,VWS V12.07,2013-03-09 22:24:00,
2013-03-09 16:30:00,56.1,42.8,29.80,SSE,153,6.0,7.0,61,0.00,,SKC,0.92,VWS V12.07,2013-03-09 22:30:00,
2013-03-09 16:38:00,56.0,42.8,29.80,SSE,166,6.0,12.0,61,0.00,,SKC,0.92,VWS V12.07,2013-03-09 22:38:00,
2013-03-09 16:43:00,55.8,42.6,29.80,ESE,108,5.0,12.0,61,0.00,,SKC,0.92,VWS V12.07,2013-03-09 22:43:00,
2013-03-09 16:50:00,55.7,42.9,29.80,SE,139,4.0,12.0,62,0.00,,SKC,0.92,VWS V12.07,2013-03-09 22:50:00,
2013-03-09 16:56:00,55.5,43.1,29.81,SE,134,3.0,12.0,63,0.00,,SKC,0.92,VWS V12.07,2013-03-09 22:56:00,
2013-03-09 17:04:00,55.4,43.0,29.80,ESE,117,2.0,7.0,63,0.00,,SKC,0.92,VWS V12.07,2013-03-09 23:04:00,
2013-03-09 17:13:00,55.0,42.7,29.80,ESE,115,3.0,7.0,63,0.00,,SKC,0.92,VWS V12.07,2013-03-09 23:13:00,
2013-03-09 17:20:00,55.1,42.8,29.79,SE,145,5.0,8.0,63,0.00,,SKC,0.92,VWS V12.07,2013-03-09 23:20:00,
2013-03-09 17:28:00,55.1,42.8,29.79,SE,135,6.0,8.0,63,0.00,,SKC,0.92,VWS V12.07,2013-03-09 23:28:00,
2013-03-09 17:37:00,55.1,42.8,29.79,ESE,122,5.0,8.0,63,0.00,,SKC,0.92,VWS V12.07,2013-03-09 23:37:00,
2013-03-09 17:45:00,54.9,43.0,29.79,SE,136,3.0,8.0,64,0.00,,SKC,0.92,VWS V12.07,2013-03-09 23:45:00,
2013-03-09 17:53:00,54.9,43.0,29.78,SE,134,4.0,8.0,64,0.00,,SKC,0.92,VWS V12.07,2013-03-09 23:53:00,
2013-03-09 18:01:00,54.8,42.9,29.78,SE,136,3.0,5.0,64,0.00,,SKC,0.92,VWS V12.07,2013-03-10 00:01:00,
2013-03-09 18:08:00,54.9,43.0,29.78,SE,129,7.0,11.0,64,0.00,,SKC,0.92,VWS V12.07,2013-03-10 00:08:00,
2013-03-09 18:14:00,54.9,42.6,29.77,ESE,123,6.0,11.0,63,0.00,,SKC,0.92,VWS V12.07,2013-03-10 00:14:00,
2013-03-09 18:21:00,55.0,43.1,29.77,South,174,6.0,12.0,64,0.00,,SKC,0.92,VWS V12.07,2013-03-10 00:21:00,
2013-03-09 18:28:00,54.8,42.9,29.77,SE,134,6.0,12.0,64,0.00,,SKC,0.92,VWS V12.07,2013-03-10 00:28:00,
2013-03-09 18:34:00,54.7,42.8,29.77,SE,132,5.0,9.0,64,0.00,,SKC,0.92,VWS V12.07,2013-03-10 00:34:00,
2013-03-09 18:41:00,54.7,42.8,29.77,SSE,156,4.0,9.0,64,0.00,,SKC,0.92,VWS V12.07,2013-03-10 00:41:00,
2013-03-09 18:49:00,54.7,42.8,29.77,SE,139,3.0,9.0,64,0.00,,SKC,0.92,VWS V12.07,2013-03-10 00:49:00,
2013-03-09 18:54:00,54.6,43.1,29.77,SE,126,6.0,9.0,65,0.00,,SKC,0.92,VWS V12.07,2013-03-10 00:54:00,
2013-03-09 19:01:00,54.6,43.1,29.77,SE,134,4.0,4.0,65,0.00,,SKC,0.92,VWS V12.07,2013-03-10 01:01:00,
2013-03-09 19:09:00,54.4,42.9,29.76,SE,141,5.0,8.0,65,0.00,,SKC,0.92,VWS V12.07,2013-03-10 01:09:00,
2013-03-09 19:17:00,54.3,42.8,29.76,ESE,123,6.0,8.0,65,0.00,,SKC,0.92,VWS V12.07,2013-03-10 01:17:00,
2013-03-09 19:25:00,54.6,43.1,29.76,SE,132,6.0,9.0,65,0.00,,SKC,0.92,VWS V12.07,2013-03-10 01:25:00,
2013-03-09 19:34:00,54.7,43.2,29.77,SSE,158,6.0,7.0,65,0.00,,SKC,0.92,VWS V12.07,2013-03-10 01:34:00,
2013-03-09 19:40:00,54.8,43.3,29.76,SE,138,5.0,9.0,65,0.00,,SKC,0.92,VWS V12.07,2013-03-10 01:40:00,
2013-03-09 19:48:00,54.8,43.3,29.77,SSE,151,3.0,9.0,65,0.00,,SKC,0.92,VWS V12.07,2013-03-10 01:48:00,
2013-03-09 19:54:00,54.8,42.9,29.76,SE,125,5.0,9.0,64,0.00,,SKC,0.92,VWS V12.07,2013-03-10 01:54:00,
2013-03-09 20:01:00,54.7,42.8,29.76,SE,139,5.0,5.0,64,0.00,,SKC,0.92,VWS V12.07,2013-03-10 02:01:00,
2013-03-09 20:08:00,54.6,42.7,29.76,SE,134,5.0,7.0,64,0.00,,SKC,0.92,VWS V12.07,2013-03-10 02:08:00,
2013-03-09 20:14:00,54.6,42.7,29.76,SSE,159,2.0,8.0,64,0.00,,SKC,0.92,VWS V12.07,2013-03-10 02:14:00,
2013-03-09 20:21:00,55.1,42.3,29.76,SE,134,4.0,8.0,62,0.00,,SKC,0.92,VWS V12.07,2013-03-10 02:21:00,
2013-03-09 20:29:00,55.3,42.1,29.75,ESE,119,6.0,8.0,61,0.00,,SKC,0.92,VWS V12.07,2013-03-10 02:29:00,
2013-03-09 20:37:00,56.1,42.0,29.75,SE,143,3.0,6.0,59,0.00,,SKC,0.92,VWS V12.07,2013-03-10 02:37:00,
2013-03-09 20:45:00,56.2,42.1,29.76,SE,139,4.0,6.0,59,0.00,,SKC,0.92,VWS V12.07,2013-03-10 02:45:00,
2013-03-09 20:54:00,56.6,42.0,29.76,SE,124,4.0,8.0,58,0.00,,SKC,0.92,VWS V12.07,2013-03-10 02:54:00,
2013-03-09 21:01:00,56.7,41.7,29.76,SE,143,4.0,6.0,57,0.00,,SKC,0.92,VWS V12.07,2013-03-10 03:01:00,
2013-03-09 21:09:00,57.0,41.0,29.76,SSE,162,4.0,7.0,55,0.00,,SKC,0.92,VWS V12.07,2013-03-10 03:09:00,
2013-03-09 21:14:00,57.2,41.2,29.76,South,174,3.0,7.0,55,0.00,,SKC,0.92,VWS V12.07,2013-03-10 03:14:00,
2013-03-09 21:21:00,57.6,41.1,29.76,SSE,160,4.0,8.0,54,0.00,,SKC,0.92,VWS V12.07,2013-03-10 03:21:00,
2013-03-09 21:29:00,57.9,40.9,29.76,SE,138,2.0,9.0,53,0.00,,SKC,0.92,VWS V12.07,2013-03-10 03:29:00,
2013-03-09 21:34:00,58.0,41.0,29.76,South,176,3.0,8.0,53,0.00,,SKC,0.92,VWS V12.07,2013-03-10 03:34:00,
2013-03-09 21:41:00,58.0,41.0,29.76,ESE,112,8.0,11.0,53,0.00,,SKC,0.92,VWS V12.07,2013-03-10 03:41:00,
2013-03-09 21:46:00,58.2,41.2,29.76,SSW,212,3.0,11.0,53,0.00,,SKC,0.92,VWS V12.07,2013-03-10 03:46:00,
2013-03-09 21:55:00,58.1,41.1,29.76,SE,136,4.0,11.0,53,0.00,,SKC,0.92,VWS V12.07,2013-03-10 03:55:00,
2013-03-09 22:04:00,57.7,41.2,29.76,South,188,0.0,4.0,54,0.00,,SKC,0.92,VWS V12.07,2013-03-10 04:04:00,
2013-03-09 22:11:00,57.5,41.0,29.77,SSE,156,0.0,5.0,54,0.00,,SKC,0.92,VWS V12.07,2013-03-10 04:11:00,
2013-03-09 22:19:00,57.3,41.3,29.77,SE,145,1.0,8.0,55,0.00,,SKC,0.92,VWS V12.07,2013-03-10 04:19:00,
2013-03-09 22:27:00,57.2,40.7,29.77,SSE,160,2.0,10.0,54,0.00,,SKC,0.92,VWS V12.07,2013-03-10 04:27:00,
2013-03-09 22:35:00,57.2,40.7,29.77,SSE,156,5.0,10.0,54,0.00,,SKC,0.92,VWS V12.07,2013-03-10 04:35:00,
2013-03-09 22:44:00,57.2,40.7,29.78,SSW,212,3.0,10.0,54,0.00,,SKC,0.92,VWS V12.07,2013-03-10 04:44:00,
2013-03-09 22:51:00,57.0,41.0,29.79,SSW,207,3.0,10.0,55,0.00,,SKC,0.92,VWS V12.07,2013-03-10 04:51:00,
2013-03-09 22:59:00,56.2,42.5,29.79,SSE,156,4.0,11.0,60,0.00,,SKC,0.92,VWS V12.07,2013-03-10 04:59:00,
2013-03-09 23:04:00,55.3,44.2,29.79,South,184,2.0,7.0,66,0.00,,SKC,0.92,VWS V12.07,2013-03-10 05:04:00,
2013-03-09 23:07:00,54.8,44.5,29.79,WSW,257,6.0,9.0,68,0.00,,SKC,0.92,VWS V12.07,2013-03-10 05:07:00,
2013-03-09 23:15:00,53.5,45.1,29.79,SW,223,0.0,9.0,73,0.01,,SKC,0.93,VWS V12.07,2013-03-10 05:15:00,
2013-03-09 23:19:00,52.9,45.5,29.79,South,187,0.0,9.0,76,0.02,,SKC,0.94,VWS V12.07,2013-03-10 05:19:00,
2013-03-09 23:24:00,52.1,45.8,29.79,SSW,210,0.0,9.0,79,0.04,,SKC,0.96,VWS V12.07,2013-03-10 05:24:00,
2013-03-09 23:31:00,51.0,45.7,29.79,West,275,0.0,0.0,82,0.07,,SKC,1.00,VWS V12.07,2013-03-10 05:31:00,
2013-03-09 23:39:00,50.1,45.8,29.78,SSW,208,0.0,2.0,85,0.11,,SKC,1.03,VWS V12.07,2013-03-10 05:39:00,
2013-03-09 23:46:00,49.7,46.0,29.77,South,179,0.0,3.0,87,0.11,,SKC,1.03,VWS V12.07,2013-03-10 05:46:00,
2013-03-09 23:51:00,49.5,46.1,29.77,SW,214,0.0,3.0,88,0.12,,SKC,1.04,VWS V12.07,2013-03-10 05:51:00,
2013-03-09 23:56:00,49.4,46.3,29.76,SE,124,0.0,3.0,89,0.13,,SKC,1.05,VWS V12.07,2013-03-10 05:56:00,